Погода в Фатеево

Россия / Тюменская область     58°02′47″N   69°18′54″E
темп.,
°C
ветер,
м/с
пор.,
м/с
влажн.,
%
обл.,
%
осадки,
мм/ч
давл.,
гПа
погр.,
м
27 февраля, сб
сб2723:00−27ююв2210059 0.0 103019
02:00−28ююв229976 0.0 103019
05:00−29ююв229964 0.0 103022
08:00−29ююв239953 0.0 102960
11:00−24ююв249567 0.0 1029251
14:00−20ююв359169 0.0 1028405
17:00−21ююв389377 0.0 1027390
20:00−25юв399757 0.0 1026215
28 февраля, вс
вс2823:00−27вюв399769 0.0 1025207
02:00−27вюв489691 0.0 1023237
05:00−25вюв489696 0.0 1022255
08:00−25вюв4897100 0.1 1020257
11:00−22в4894100 0.1 1018327
14:00−18в4893100 0.1 1017413
17:00−18в4994100 0.2 1015482
20:00−18в41095100 0.3 1015529
1 марта, пн
пн123:00−17всв4895100 0.6 1014503
02:00−19всв3895100 0.2 1014400
05:00−19всв3896100 0.3 1014380
08:00−20св3696100 0.2 1014330
11:00−17св2593100 0.3 1015372
14:00−14ссв2492100 0.2 1015460
17:00−14ссв2394100 0.4 1016371
20:00−17св229788 0.1 101634
2 марта, вт
вт223:00−18всв119785 0.1 101720
02:00−19ссв119887 0.1 101620
05:00−21ссв0010082 0.1 101720
08:00−21вюв009998 0.0 101620
11:00−15ююв019198 0.1 1016289
14:00−13ю1286100 0.0 1015518
17:00−13ю1193100 0.1 1014111
20:00−18ююв119799 0.0 101420
3 марта, ср
ср323:00−20юв119990 0.0 101420
02:00−21ююв1110075 0.0 101420
05:00−22ююв1210080 0.1 101520
08:00−22ююв229961 0.0 101624
11:00−15ююв249252 0.0 1016298
14:00−12ююв358995 0.0 1016511
17:00−12ююв369398 0.1 1016409
20:00−16ююв3996100 0.0 1016208